Regional Weather Roundup
Issued by NWS

Home | Current Version | Previous Version | Text Only | Print | Product List | Glossary On
Versions: 1 2 3 4 5 6 7 8 9 10 11 12 13 14 15 16 17 18 19 20 21 22 23 24 25 26 27
000
ASUS45 KBOI 250510
RWRID

IDAHO REGIONAL WEATHER ROUNDUP
NATIONAL WEATHER SERVICE BOISE ID
1100 PM MDT FRI MAR 24 2017

NOTE: "FAIR" INDICATES FEW OR NO CLOUDS BELOW 12000 FEET
WITH NO SIGNIFICANT WEATHER AND/OR OBSTRUCTIONS TO VISIBILITY

IDZ012-014-250600-
SOUTHWEST IDAHO


CITY           SKY/WX    TMP DP  RH WIND       PRES   REMARKS
BOISE          CLOUDY    45  42  89 CALM      30.06R
CALDWELL       CLOUDY    44  42  93 E5        30.07R
MOUNTAIN HOME  CLOUDY    46  46 100 CALM      30.07R
$$

IDZ016-017-250600-
SOUTHCENTRAL IDAHO


CITY           SKY/WX    TMP DP  RH WIND       PRES   REMARKS
BURLEY         LGT RAIN  45  42  89 W7        30.07R FOG
JEROME         LGT RAIN  44  43  96 SE7       30.07R
TWIN FALLS     LGT RAIN  45  41  86 S8        30.07S
$$

IDZ019>023-250600-
SOUTHEAST IDAHO


CITY           SKY/WX    TMP DP  RH WIND       PRES   REMARKS
IDAHO FALLS    CLOUDY    48  31  51 S14       30.05R
POCATELLO      CLOUDY    48  36  63 W17       30.07R
REXBURG        CLOUDY    45  31  58 S12G21    30.04S
$$

IDZ006-010-011-018-031-032-250600-
CENTRAL IDAHO MOUNTAINS


CITY           SKY/WX    TMP DP  RH WIND       PRES   REMARKS
MCCALL         CLOUDY    35  32  88 CALM      30.01R
HAILEY         DRIZZLE   36  34  93 CALM      30.06S
STANLEY          N/A     34  32  92 N6        30.03R WCI  29
SALMON         CLOUDY    48  34  57 SW10      29.93R
CHALLIS        CLOUDY    44  34  67 S8        29.96S
$$

IDZ002-004-006-007-026-250600-
NORTHERN IDAHO


CITY           SKY/WX    TMP DP  RH WIND       PRES   REMARKS
LEWISTON       PTCLDY    46  37  71 W5        30.01R
LOWELL           N/A     43  41  93 NW3       30.04R
COEUR D`ALENE  CLOUDY    42  40  92 SW6       29.97R
MULLAN PASS    FLURRIES  28  28 100 W5        29.91R WCI  23
$$




USA.gov is the U.S. government's official web portal to all federal, state and local government web resources and services.